Lambertville, MI

9:25 AM EDT on October 17, 2017 (GMT -0400)
Lambertville

Weather History for KDUH - November, 2012

Change the Weather History Date:

Saturday, November 3, 2012

  Actual Average (KTOL) Record (KTOL)
Temperature  
Mean Temperature 38 °F -  
Max Temperature 47 °F 54 °F 77 °F (1987)
Min Temperature 30 °F 35 °F 16 °F (1951)
Degree Days  
Heating Degree Days 26    
Moisture  
Dew Point 28 °F    
Average Humidity 68    
Maximum Humidity 86    
Minimum Humidity 48    
Precipitation  
Precipitation 0.00 in - - ()
Sea Level Pressure  
Sea Level Pressure 30.15 in    
Wind  
Wind Speed 4 mph (NNW)    
Max Wind Speed 9 mph    
Max Gust Speed 16 mph    
Visibility 10 miles    
Events      
Averages and records for this station are not official NWS values.
T = Trace of Precipitation, MM = Missing Value Source: NWS Daily Summary

Daily Weather History Graph

Daily Weather History Graph

Search for Another Location

Airport or City:

Trip Planner

Search our weather history database for the weather conditions in past years. The results will help you decide how hot, cold, wet, or windy it might be!

Date:

Astronomy

Nov. 03, 2012 Rise Set
Actual Time 8:09 AM EDT 6:25 PM EDT
Civil Twilight 7:40 AM EDT 6:55 PM EDT
Nautical Twilight 7:07 AM EDT 7:27 PM EDT
Astronomical Twilight 6:35 AM EDT 8:00 PM EDT
Moon 10:04 PM EDT (11/3) 12:14 PM EDT (11/3)
Length of Visible Light 11h 14m
Length of Day
10h 16m
Waning Gibbous, 80% of the Moon is Illuminated
Nov 3
Waning Gibbous
Nov 6
Last Quarter
Nov 13
New
Nov 20
First Quarter
Nov 28
Full

Hourly Weather History & Observations

Time (EDT) Temp. Windchill Dew Point Humidity Pressure Visibility Wind Dir Wind Speed Gust Speed Precip Events Conditions
12:15 AM 41.2 °F 37.3 °F 29.3 °F 63% 30.08 in 10.0 mi NW 5.8 mph - N/A   Overcast
12:35 AM 41.0 °F 36.4 °F 29.7 °F 64% 30.08 in 10.0 mi NNW 6.9 mph - N/A   Overcast
12:55 AM 40.5 °F 35.8 °F 30.0 °F 66% 30.09 in 10.0 mi NNW 6.9 mph - N/A   Overcast
1:15 AM 40.5 °F 37.3 °F 28.6 °F 63% 30.09 in 10.0 mi NNW 4.6 mph - N/A   Overcast
1:35 AM 40.3 °F 37.1 °F 29.3 °F 65% 30.10 in 10.0 mi NNW 4.6 mph - N/A   Overcast
1:55 AM 40.1 °F 35.3 °F 28.9 °F 64% 30.10 in 10.0 mi NNW 6.9 mph - N/A   Overcast
2:15 AM 39.7 °F 34.3 °F 28.4 °F 64% 30.10 in 10.0 mi NNW 8.1 mph 16.1 mph N/A   Overcast
2:35 AM 37.8 °F 31.3 °F 27.5 °F 67% 30.11 in 10.0 mi NNW 9.2 mph - N/A   Scattered Clouds
3:15 AM 35.4 °F 30.5 °F 27.7 °F 73% 30.12 in 10.0 mi NW 5.8 mph - N/A   Clear
3:35 AM 34.5 °F 30.4 °F 27.9 °F 77% 30.12 in 10.0 mi NW 4.6 mph - N/A   Clear
3:55 AM 34.0 °F 29.8 °F 27.7 °F 78% 30.12 in 10.0 mi NNW 4.6 mph - N/A   Clear
4:15 AM 33.4 °F 29.1 °F 27.5 °F 79% 30.12 in 10.0 mi NNW 4.6 mph - N/A   Clear
4:35 AM 33.1 °F 30.0 °F 27.5 °F 80% 30.13 in 10.0 mi NW 3.5 mph - N/A   Clear
4:55 AM 32.5 °F - 27.1 °F 80% 30.13 in 10.0 mi Calm Calm - N/A   Clear
5:15 AM 32.0 °F - 27.0 °F 82% 30.13 in 10.0 mi Calm Calm - N/A   Clear
5:35 AM 32.0 °F 28.7 °F 26.6 °F 80% 30.13 in 10.0 mi West 3.5 mph - N/A   Clear
5:55 AM 31.6 °F 28.3 °F 26.6 °F 82% 30.14 in 10.0 mi WNW 3.5 mph - N/A   Clear
6:15 AM 31.8 °F - 27.0 °F 82% 30.15 in 10.0 mi Calm Calm - N/A   Clear
6:35 AM 31.1 °F 27.7 °F 26.8 °F 84% 30.15 in 10.0 mi NW 3.5 mph - N/A   Clear
6:55 AM 31.3 °F 27.9 °F 27.0 °F 84% 30.15 in 10.0 mi WNW 3.5 mph - N/A   Clear
7:15 AM 30.7 °F - 26.4 °F 84% 30.15 in 10.0 mi Calm Calm - N/A   Clear
7:35 AM 30.0 °F 26.5 °F 26.2 °F 86% 30.15 in 10.0 mi NNW 3.5 mph - N/A   Clear
7:55 AM 30.2 °F 26.7 °F 26.6 °F 86% 30.15 in 10.0 mi NNW 3.5 mph - N/A   Clear
8:15 AM 30.2 °F 26.7 °F 26.6 °F 86% 30.15 in 10.0 mi North 3.5 mph - N/A   Clear
8:35 AM 30.0 °F 26.5 °F 26.2 °F 86% 30.16 in 10.0 mi NNW 3.5 mph - N/A   Clear
8:55 AM 32.0 °F 27.5 °F 27.9 °F 85% 30.16 in 10.0 mi NNW 4.6 mph - N/A   Clear
9:15 AM 32.9 °F 27.5 °F 28.4 °F 84% 30.17 in 10.0 mi NNW 5.8 mph - N/A   Clear
9:35 AM 34.0 °F 31.0 °F 29.1 °F 82% 30.18 in 10.0 mi NNW 3.5 mph - N/A   Clear
9:55 AM 35.4 °F 29.7 °F 29.3 °F 78% 30.18 in 10.0 mi NNW 6.9 mph - N/A   Clear
10:15 AM 36.5 °F 31.8 °F 29.5 °F 76% 30.18 in 10.0 mi NNW 5.8 mph - N/A   Clear
10:35 AM 37.9 °F 33.5 °F 29.7 °F 72% 30.19 in 10.0 mi North 5.8 mph - N/A   Clear
10:55 AM 38.8 °F 36.5 °F 29.5 °F 69% 30.19 in 10.0 mi NW 3.5 mph - N/A   Clear
11:15 AM 39.9 °F 37.8 °F 29.8 °F 67% 30.18 in 10.0 mi NNE 3.5 mph - N/A   Clear
11:34 AM 40.8 °F - 29.1 °F 63% 30.18 in 10.0 mi Calm Calm - N/A   Clear
11:55 AM 41.7 °F - 28.9 °F 61% 30.18 in 10.0 mi Calm Calm - N/A   Clear
12:15 PM 42.6 °F - 28.6 °F 58% 30.18 in 10.0 mi Calm Calm - N/A   Clear
12:35 PM 41.9 °F - 28.8 °F 60% 30.18 in 10.0 mi Calm Calm - N/A   Clear
12:55 PM 42.4 °F 39.6 °F 28.8 °F 58% 30.18 in 10.0 mi WSW 4.6 mph - N/A   Clear
1:14 PM 44.4 °F 42.9 °F 28.4 °F 53% 30.18 in 10.0 mi West 3.5 mph - N/A   Clear
1:35 PM 43.9 °F - 28.6 °F 55% 30.17 in 10.0 mi Calm Calm - N/A   Clear
1:55 PM 44.1 °F - 27.7 °F 53% 30.15 in 10.0 mi Calm Calm - N/A   Clear
2:15 PM 45.0 °F - 29.1 °F 54% 30.16 in 10.0 mi Calm Calm - N/A   Clear
2:35 PM 45.9 °F 44.6 °F 28.2 °F 50% 30.15 in 10.0 mi SW 3.5 mph - N/A   Clear
2:55 PM 45.7 °F - 28.4 °F 51% 30.15 in 10.0 mi Calm Calm - N/A   Scattered Clouds
3:15 PM 46.4 °F 45.2 °F 28.2 °F 49% 30.15 in 10.0 mi WNW 3.5 mph - N/A   Clear
3:35 PM 46.0 °F 43.1 °F 28.0 °F 50% 30.15 in 10.0 mi WNW 5.8 mph - N/A   Clear
3:54 PM 47.1 °F - 28.0 °F 48% 30.13 in 10.0 mi Calm Calm - N/A   Clear
4:15 PM 45.9 °F - 27.7 °F 49% 30.13 in 10.0 mi Calm Calm - N/A   Clear
4:35 PM 46.2 °F 45.0 °F 27.5 °F 48% 30.13 in 10.0 mi North 3.5 mph - N/A   Clear
4:55 PM 45.9 °F - 27.7 °F 49% 30.13 in 10.0 mi Calm Calm - N/A   Clear
5:15 PM 45.0 °F 43.5 °F 27.7 °F 51% 30.13 in 10.0 mi North 3.5 mph - N/A   Clear
5:35 PM 45.3 °F 42.3 °F 27.9 °F 51% 30.13 in 10.0 mi NNW 5.8 mph - N/A   Clear
5:55 PM 43.9 °F 40.5 °F 28.4 °F 55% 30.13 in 10.0 mi NNW 5.8 mph - N/A   Clear
6:15 PM 42.8 °F - 27.5 °F 55% 30.14 in 10.0 mi Calm Calm - N/A   Clear
6:34 PM 41.0 °F - 27.9 °F 60% 30.14 in 10.0 mi Calm Calm - N/A   Clear
6:55 PM 37.9 °F - 29.3 °F 71% 30.14 in 10.0 mi Calm Calm - N/A   Clear
7:15 PM 37.4 °F - 29.5 °F 73% 30.15 in 10.0 mi Calm Calm - N/A   Clear
7:35 PM 39.6 °F - 29.5 °F 67% 30.15 in 10.0 mi Calm Calm - N/A   Clear
7:55 PM 40.5 °F 37.3 °F 29.7 °F 65% 30.16 in 10.0 mi WNW 4.6 mph - N/A   Clear
8:15 PM 39.6 °F 35.4 °F 29.8 °F 68% 30.16 in 10.0 mi NW 5.8 mph - N/A   Mostly Cloudy
8:35 PM 38.7 °F 33.6 °F 29.8 °F 71% 30.16 in 10.0 mi NNW 6.9 mph - N/A   Overcast
8:55 PM 37.6 °F 34.0 °F 29.3 °F 72% 30.16 in 10.0 mi NNW 4.6 mph - N/A   Scattered Clouds
9:15 PM 36.3 °F 32.5 °F 29.1 °F 75% 30.16 in 10.0 mi North 4.6 mph - N/A   Scattered Clouds
9:35 PM 36.1 °F 33.5 °F 29.1 °F 76% 30.16 in 10.0 mi North 3.5 mph - N/A   Scattered Clouds
9:55 PM 37.8 °F 32.5 °F 28.9 °F 71% 30.16 in 10.0 mi NNE 6.9 mph - N/A   Overcast
10:15 PM 37.8 °F 35.3 °F 28.4 °F 69% 30.17 in 10.0 mi North 3.5 mph - N/A   Overcast
10:35 PM 37.6 °F 33.1 °F 28.4 °F 69% 30.17 in 10.0 mi North 5.8 mph - N/A   Overcast
10:54 PM 37.4 °F 32.8 °F 28.4 °F 70% 30.18 in 10.0 mi North 5.8 mph - N/A   Overcast
11:15 PM 37.4 °F 32.1 °F 28.2 °F 69% 30.18 in 10.0 mi North 6.9 mph - N/A   Overcast
11:35 PM 36.9 °F 32.2 °F 28.0 °F 70% 30.18 in 10.0 mi North 5.8 mph - N/A   Overcast
11:55 PM 36.5 °F 33.9 °F 28.0 °F 71% 30.18 in 10.0 mi North 3.5 mph - N/A   Overcast